Year,Month,Day,Hour,Minute,Value (Times are PST for temperature in C)
2021,01,12,15,32,10.70
2021,01,12,15,33,10.70
2021,01,12,15,34,10.70
2021,01,12,15,36,10.70
2021,01,12,15,37,10.70
2021,01,12,15,38,10.70
2021,01,12,15,39,10.70
2021,01,12,15,40,10.70
2021,01,12,15,41,10.70
2021,01,12,15,42,10.70
2021,01,12,15,43,10.70
2021,01,12,15,44,10.70
2021,01,12,15,47,10.70
2021,01,12,15,50,10.70
2021,01,12,15,51,10.70
2021,01,12,15,52,10.70
2021,01,12,15,53,10.70
2021,01,12,15,54,10.70
2021,01,12,15,55,10.70
2021,01,12,15,56,10.70
2021,01,12,15,57,10.60
2021,01,12,15,58,10.60
2021,01,12,15,59,10.60
2021,01,12,16,00,10.60
2021,01,12,16,01,10.60
2021,01,12,16,02,10.60
2021,01,12,16,03,10.60
2021,01,12,16,04,10.60
2021,01,12,16,05,10.60
2021,01,12,16,06,10.60
2021,01,12,16,07,10.60
2021,01,12,16,08,10.60
2021,01,12,16,09,10.60
2021,01,12,16,10,10.60
2021,01,12,16,11,10.60
2021,01,12,16,12,10.60
2021,01,12,16,13,10.60
2021,01,12,16,14,10.60
2021,01,12,16,15,10.60
2021,01,12,16,16,10.60
2021,01,12,16,17,10.60
2021,01,12,16,18,10.60
2021,01,12,16,19,10.60
2021,01,12,16,20,10.60
2021,01,12,16,21,10.60
2021,01,12,16,22,10.60
2021,01,12,16,23,10.60
2021,01,12,16,24,10.60
2021,01,12,16,25,10.60
2021,01,12,16,26,10.60
2021,01,12,16,27,10.60
2021,01,12,16,28,10.60
2021,01,12,16,29,10.60
2021,01,12,16,30,10.60
2021,01,12,16,31,10.60
2021,01,12,16,32,10.60
2021,01,12,16,33,10.60
2021,01,12,16,34,10.60
2021,01,12,16,35,10.60
2021,01,12,16,36,10.60
2021,01,12,16,37,10.60
2021,01,12,16,38,10.60
2021,01,12,16,39,10.60
2021,01,12,16,40,10.60
2021,01,12,16,41,10.60
2021,01,12,16,42,10.60
2021,01,12,16,44,10.60
2021,01,12,16,46,10.60
2021,01,12,16,47,10.60
2021,01,12,16,48,10.60
2021,01,12,16,49,10.60
2021,01,12,16,51,10.60
2021,01,12,16,52,10.60
2021,01,12,16,53,10.60
2021,01,12,16,54,10.60
2021,01,12,16,56,10.60
2021,01,12,16,57,10.60
2021,01,12,16,58,10.60
2021,01,12,16,59,10.60
2021,01,12,17,01,10.40
2021,01,12,17,02,10.40
2021,01,12,17,03,10.40
2021,01,12,17,04,10.40
2021,01,12,17,06,10.40
2021,01,12,17,07,10.40
2021,01,12,17,08,10.30
2021,01,12,17,09,10.30
2021,01,12,17,11,10.20
2021,01,12,17,12,10.10
2021,01,12,17,13,10.10
2021,01,12,17,14,10.10
2021,01,12,17,16,10.10
2021,01,12,17,17,10.10
2021,01,12,17,18,10.10
2021,01,12,17,19,10.10
2021,01,12,17,21,10.10
2021,01,12,17,22,10.10
2021,01,12,17,23,10.10
2021,01,12,17,24,10.10
2021,01,12,17,26,10.10
2021,01,12,17,27,10.10
2021,01,12,17,28,10.20
2021,01,12,17,29,10.20
2021,01,12,17,31,10.20
2021,01,12,17,32,10.20
2021,01,12,17,33,10.20
2021,01,12,17,34,10.20
2021,01,12,17,36,10.20
2021,01,12,17,37,10.10
2021,01,12,17,38,10.10
2021,01,12,17,39,10.10
2021,01,12,17,41,10.10
2021,01,12,17,42,10.10
2021,01,12,17,43,9.90
2021,01,12,17,44,9.90
2021,01,12,17,46,9.80
2021,01,12,17,47,9.80
2021,01,12,17,48,9.70
2021,01,12,17,49,9.70
2021,01,12,17,51,9.70
2021,01,12,17,52,9.70
2021,01,12,17,53,9.70
2021,01,12,17,54,9.70
2021,01,12,17,55,9.70
2021,01,12,17,56,9.70
2021,01,12,17,57,9.70
2021,01,12,17,58,9.70
2021,01,12,17,59,9.70
2021,01,12,18,00,9.70
2021,01,12,18,01,9.70
2021,01,12,18,02,9.70
2021,01,12,18,03,9.70
2021,01,12,18,04,9.70
2021,01,12,18,05,9.70
2021,01,12,18,06,9.60
2021,01,12,18,07,9.60
2021,01,12,18,08,9.60
2021,01,12,18,09,9.60
2021,01,12,18,10,9.60
2021,01,12,18,11,9.60
2021,01,12,18,12,9.60
2021,01,12,18,13,9.60
2021,01,12,18,14,9.60
2021,01,12,18,15,9.60
2021,01,12,18,16,9.60
2021,01,12,18,17,9.60
2021,01,12,18,18,9.50
2021,01,12,18,19,9.50
2021,01,12,18,20,9.50
2021,01,12,18,21,9.50
2021,01,12,18,22,9.50
2021,01,12,18,23,9.50
2021,01,12,18,24,9.50
2021,01,12,18,25,9.40
2021,01,12,18,26,9.40
2021,01,12,18,27,9.40
2021,01,12,18,28,9.40
2021,01,12,18,29,9.40
2021,01,12,18,30,9.40
2021,01,12,18,32,9.40
2021,01,12,18,33,9.40
2021,01,12,18,34,9.40
2021,01,12,18,35,9.40
2021,01,12,18,36,9.40
2021,01,12,18,37,9.40
2021,01,12,18,38,9.40
2021,01,12,18,39,9.40
2021,01,12,18,40,9.40
2021,01,12,18,41,9.50
2021,01,12,18,42,9.50
2021,01,12,18,43,9.50
2021,01,12,18,44,9.50
2021,01,12,18,45,9.50
2021,01,12,18,46,9.40
2021,01,12,18,47,9.40
2021,01,12,18,48,9.40
2021,01,12,18,49,9.40
2021,01,12,18,50,9.30
2021,01,12,18,51,9.30
2021,01,12,18,52,9.30
2021,01,12,18,53,9.30
2021,01,12,18,54,9.20
2021,01,12,18,55,9.20
2021,01,12,18,56,9.20
2021,01,12,18,57,9.20
2021,01,12,18,58,9.20
2021,01,12,18,59,9.20
2021,01,12,19,00,9.20
2021,01,12,19,01,9.20
2021,01,12,19,02,9.10
2021,01,12,19,03,9.10
2021,01,12,19,04,9.10
2021,01,12,19,05,9.10
2021,01,12,19,06,9.10
2021,01,12,19,07,9.10
2021,01,12,19,08,9.10
2021,01,12,19,09,9.10
2021,01,12,19,10,9.10
2021,01,12,19,11,9.10
2021,01,12,19,12,9.10
2021,01,12,19,13,9.20
2021,01,12,19,14,9.20
2021,01,12,19,15,9.20
2021,01,12,19,16,9.20
2021,01,12,19,17,9.20
2021,01,12,19,18,9.20
2021,01,12,19,19,9.20
2021,01,12,19,20,9.20
2021,01,12,19,21,9.20
2021,01,12,19,22,9.20
2021,01,12,19,23,9.20
2021,01,12,19,24,9.20
2021,01,12,19,25,9.20
2021,01,12,19,26,9.20
2021,01,12,19,27,9.20
2021,01,12,19,28,9.20
2021,01,12,19,29,9.20
2021,01,12,19,30,9.10
2021,01,12,19,31,9.10
2021,01,12,19,32,9.10
2021,01,12,19,33,9.10
2021,01,12,19,34,9.00
2021,01,12,19,35,9.00
2021,01,12,19,36,9.00
2021,01,12,19,37,9.00
2021,01,12,19,38,9.00
2021,01,12,19,39,9.00
2021,01,12,19,40,9.00
2021,01,12,19,41,8.90
2021,01,12,19,42,8.90
2021,01,12,19,43,8.90
2021,01,12,19,44,8.90
2021,01,12,19,45,8.90
2021,01,12,19,46,8.90
2021,01,12,19,47,8.90
2021,01,12,19,48,8.90
2021,01,12,19,49,8.90
2021,01,12,19,50,8.90
2021,01,12,19,51,8.90
2021,01,12,19,52,8.90
2021,01,12,19,53,9.00
2021,01,12,19,54,9.00
2021,01,12,19,55,9.00
2021,01,12,19,56,9.00
2021,01,12,19,57,9.00
2021,01,12,19,58,9.00
2021,01,12,19,59,9.00
2021,01,12,20,00,9.00
2021,01,12,20,01,9.00
2021,01,12,20,02,9.00
2021,01,12,20,03,9.10
2021,01,12,20,04,9.20
2021,01,12,20,05,9.20
2021,01,12,20,06,9.20
2021,01,12,20,07,9.40
2021,01,12,20,08,9.60
2021,01,12,20,09,9.70
2021,01,12,20,10,9.70
2021,01,12,20,11,9.80
2021,01,12,20,12,9.90
2021,01,12,20,13,9.90
2021,01,12,20,14,9.90
2021,01,12,20,15,10.10
2021,01,12,20,16,10.10
2021,01,12,20,17,10.10
2021,01,12,20,18,10.10
2021,01,12,20,19,10.20
2021,01,12,20,20,10.30
2021,01,12,20,21,10.30
2021,01,12,20,23,10.40
2021,01,12,20,24,10.40
2021,01,12,20,26,10.40
2021,01,12,20,27,10.40
2021,01,12,20,28,10.40
2021,01,12,20,29,10.40
2021,01,12,20,31,10.40
2021,01,12,20,32,10.40
2021,01,12,20,33,10.40
2021,01,12,20,34,10.60
2021,01,12,20,36,10.70
2021,01,12,20,37,10.90
2021,01,12,20,38,10.90
2021,01,12,20,39,11.10
2021,01,12,20,41,11.20
2021,01,12,20,42,11.30
2021,01,12,20,43,11.30
2021,01,12,20,44,11.40
2021,01,12,20,46,11.40
2021,01,12,20,47,11.40
2021,01,12,20,48,11.40
2021,01,12,20,49,11.40
2021,01,12,20,51,11.60
2021,01,12,20,52,11.60
2021,01,12,20,53,11.60
2021,01,12,20,54,11.60
2021,01,12,20,56,11.60
2021,01,12,20,57,11.60
2021,01,12,20,58,11.60
2021,01,12,20,59,11.60
2021,01,12,21,01,11.60
2021,01,12,21,02,11.60
2021,01,12,21,03,11.60
2021,01,12,21,04,11.60
2021,01,12,21,06,11.60
2021,01,12,21,07,11.60
2021,01,12,21,08,11.60
2021,01,12,21,09,11.60
2021,01,12,21,10,11.60
2021,01,12,21,11,11.60
2021,01,12,21,12,11.60
2021,01,12,21,13,11.60
2021,01,12,21,14,11.60
2021,01,12,21,15,11.60
2021,01,12,21,16,11.70
2021,01,12,21,17,11.60
2021,01,12,21,18,11.60
2021,01,12,21,19,11.70
2021,01,12,21,20,11.70
2021,01,12,21,21,11.60
2021,01,12,21,22,11.60
2021,01,12,21,23,11.60
2021,01,12,21,24,11.60
2021,01,12,21,25,11.60
2021,01,12,21,26,11.60
2021,01,12,21,27,11.60
2021,01,12,21,28,11.60
2021,01,12,21,29,11.60
2021,01,12,21,30,11.60
2021,01,12,21,31,11.60
2021,01,12,21,32,11.60
2021,01,12,21,33,11.60
2021,01,12,21,34,11.60
2021,01,12,21,35,11.60
2021,01,12,21,36,11.60
2021,01,12,21,37,11.60
2021,01,12,21,38,11.60
2021,01,12,21,39,11.60
2021,01,12,21,40,11.60
2021,01,12,21,41,11.60
2021,01,12,21,42,11.60
2021,01,12,21,43,11.60
2021,01,12,21,44,11.60
2021,01,12,21,45,11.60
2021,01,12,21,46,11.60
2021,01,12,21,47,11.60
2021,01,12,21,48,11.60
2021,01,12,21,49,11.60
2021,01,12,21,50,11.60
2021,01,12,21,51,11.60
2021,01,12,21,52,11.60
2021,01,12,21,53,11.40
2021,01,12,21,54,11.40
2021,01,12,21,55,11.40
2021,01,12,21,56,11.40
2021,01,12,21,57,11.40
2021,01,12,21,58,11.40
2021,01,12,21,59,11.40
2021,01,12,22,00,11.40
2021,01,12,22,01,11.40
2021,01,12,22,02,11.40
2021,01,12,22,03,11.40
2021,01,12,22,04,11.40
2021,01,12,22,05,11.40
2021,01,12,22,06,11.40
2021,01,12,22,07,11.40
2021,01,12,22,08,11.40
2021,01,12,22,09,11.40
2021,01,12,22,10,11.40
2021,01,12,22,11,11.40
2021,01,12,22,12,11.40
2021,01,12,22,13,11.30
2021,01,12,22,14,11.30
2021,01,12,22,15,11.30
2021,01,12,22,16,11.30
2021,01,12,22,17,11.20
2021,01,12,22,18,11.20
2021,01,12,22,19,11.20
2021,01,12,22,20,11.20
2021,01,12,22,21,11.10
2021,01,12,22,22,11.10
2021,01,12,22,23,11.10
2021,01,12,22,24,11.10
2021,01,12,22,25,11.10
2021,01,12,22,26,11.10
2021,01,12,22,27,11.10
2021,01,12,22,28,11.10
2021,01,12,22,29,11.10
2021,01,12,22,30,11.10
2021,01,12,22,31,11.10
2021,01,12,22,32,11.10
2021,01,12,22,33,11.10
2021,01,12,22,34,11.10
2021,01,12,22,35,11.10
2021,01,12,22,36,10.90
2021,01,12,22,37,10.90
2021,01,12,22,38,11.10
2021,01,12,22,39,11.10
2021,01,12,22,40,11.10
2021,01,12,22,41,11.10
2021,01,12,22,42,11.10
2021,01,12,22,43,11.10
2021,01,12,22,44,11.10
2021,01,12,22,45,11.10
2021,01,12,22,46,11.10
2021,01,12,22,47,11.10
2021,01,12,22,48,11.10
2021,01,12,22,49,11.10
2021,01,12,22,50,11.10
2021,01,12,22,51,11.10
2021,01,12,22,52,11.10
2021,01,12,22,53,11.10
2021,01,12,22,54,11.10
2021,01,12,22,55,11.10
2021,01,12,22,56,11.10
2021,01,12,22,57,11.10
2021,01,12,22,58,11.10
2021,01,12,22,59,11.10
2021,01,12,23,00,11.10
2021,01,12,23,01,11.10
2021,01,12,23,02,11.10
2021,01,12,23,03,11.10
2021,01,12,23,04,11.10
2021,01,12,23,05,11.10
2021,01,12,23,06,11.10
2021,01,12,23,07,11.10
2021,01,12,23,08,11.10
2021,01,12,23,09,11.10
2021,01,12,23,10,11.10
2021,01,12,23,11,10.90
2021,01,12,23,12,10.90
2021,01,12,23,13,10.90
2021,01,12,23,14,10.80
2021,01,12,23,15,10.70
2021,01,12,23,16,10.70
2021,01,12,23,17,10.70
2021,01,12,23,18,10.70
2021,01,12,23,19,10.70
2021,01,12,23,20,10.60
2021,01,12,23,22,10.60
2021,01,12,23,24,10.60
2021,01,12,23,26,10.60
2021,01,12,23,27,10.60
2021,01,12,23,28,10.60
2021,01,12,23,29,10.60
2021,01,12,23,31,10.60
2021,01,12,23,32,10.60
2021,01,12,23,33,10.40
2021,01,12,23,34,10.40
2021,01,12,23,36,10.60
2021,01,12,23,37,10.60
2021,01,12,23,38,10.60
2021,01,12,23,39,10.60
2021,01,12,23,41,10.70
2021,01,12,23,42,10.80
2021,01,12,23,43,10.80
2021,01,12,23,44,10.90
2021,01,12,23,46,10.90
2021,01,12,23,47,11.10
2021,01,12,23,48,11.10
2021,01,12,23,49,10.90
2021,01,12,23,51,10.40
2021,01,12,23,52,10.20
2021,01,12,23,53,9.90
2021,01,12,23,54,9.70
2021,01,12,23,56,9.20
2021,01,12,23,57,9.10
2021,01,12,23,58,9.00
2021,01,12,23,59,8.90
